Showing default

COSMOS 89, 1587

Orbit data source: Space-Track

COSMOS 89, 1587 is a payload satellite owned by OKB-10 (CIS) in LEO that was launched on Sat, 18 Sep 1965 UTC via a KOSMOS 65S3 launch vehicle from the Tyuratam Missile And Space Complex (TTMTR). Payload-class satellites include a variety of spacecraft equipped with specific instruments for various scientific and technological missions. These include communications satellites like Starlink; space stations such as the ISS; scientific satellites like the Hubble; Earth observation satellites from companies like Planet Labs, Umbra, and HawkEye 360; GPS; miniature CubeSats for education and research; and military/defense satellites.

Loading next visibility...
Identifier
1587, 1965-073D
Orbit
LEO
Country
Flag of CISCIS
Related business
Manufacturer
OKB-10
Mission
Spacecraft
Bus & Motor
STRELA-1 11F610, Unknown motor
Mass
50 kg wet, 50 kg dry
Launch date (UTC)
1965-09-18 (61 years ago)
Launch vehicle
KOSMOS 65S3
Launch site
Tyuratam Missile And Space Complex (TTMTR)
Object type
Payload
Rocket body
Debris
Shape & HBR
Unknown
Radar Cross Section
Medium (>0.1 m² and <1 m²)

Expand to show TLE details & history
Last TLE update: 9 hours ago

TLE from 9 hours ago
0 COSMOS 89
1  1587U 65073D   26119.66536580 -.00000093  00000-0 -11387-4 0  9998
2  1587  56.0575 273.6601 0165219 245.0651 113.3004 12.38988648742847
Epoch: 2026-04-29T15:58Z
TLE epoch observation values (Epoch: 2026-04-29T15:58:07.605Z)
Latitude
0.00003°
Longitude
176.50537°
Altitude
1,565.297 km
Speed
7.062 km/s
True Right ascension
18h 14m 38s
True Declination
0° 00' 00"
Sunlit
Object was in daylight at epoch
Visualization orbit readout
Latitude
Unknown
Longitude
Unknown
Altitude
Unknown
Speed
Unknown
Apparent Right ascension
Unknown
Apparent Declination
Unknown
Sunlit
N/A
Visualization observer readout
Local Sidereal Time
08:36:52
Azimuth
Unknown
Elevation
Unknown
Doppler factor
Unknown
Orbital elements
Apogee altitude
1,641.056 km
Perigee altitude
1,380.379 km
Semi-major axis
7,888.854 km
Eccentricity
0.01652
Inclination
56.0575°
RAAN
273.6601°
Arg. of periapsis
245.0651°
True anomaly
115.02491°
Mean anomaly
113.3004°
Eccentric anomaly
114.16409°
Mean motion
3.09758 °/min
Orbital period
116.22 mins
BSTAR
-0.000011387
Loading maneuver chart data...
Computing Atmospheric mass density...
Loading historical data...
Loading historical data...
Loading historical data...
Loading historical data...
Loading historical data...
Loading historical data...
Loading historical data...

Documentation

Showing up to 5 results
|